Tracking 29068 objects as of 20-Jul-2024
HD Live streaming from Space Station
objects crossing your sky now

STARLINK-5035

Track STARLINK-5035 now!
10-day predictions
STARLINK-5035 is classified as:


NORAD ID: 53897
Int'l Code: 2022-119M
Perigee: 545.7 km
Apogee: 548.1 km
Inclination: 53.2 °
Period: 95.4 minutes
Semi major axis: 6917 km
RCS: Unknown
Launch date: September 24, 2022
Source: United States (US)
Launch site: AIR FORCE EASTERN TEST RANGE (AFETR)
Your satellite tracking list
Your tracking list is empty




NASA's NSSDC Master Catalog

Two Line Element Set (TLE):
1 53897U 22119M   24201.93253876  .00001231  00000-0  95460-4 0  9994
2 53897  53.2174 127.5434 0001782 111.3575 248.7607 15.08837648101447
Source of the keplerian elements: AFSPC